UAE-813

operational
NORAD ID: 66993 Int'l Des: 2025-292 Owner: UAESA/UAEU Country: UAE
LEOCIRCULARRETROGRADESSO

UAE-813について

説明を読み込み中...

リアルタイム位置

3D地球を読み込み中...

次回通過

高度履歴

Altitude vs Time

uPlot chart will show altitude changes over time

軌道要素

1 66993U 25292A 25347.47200996 .00007377 00000-0 53000-3 0 9996
2 66993 97.6535 60.0159 0013888 270.3845 89.5790 15.04500321 502
Epoch: Dec 13, 2025 • Age: 22 hours

現在のステータス

高度 556.0 km
速度 7.58 km/s
衛星直下点 5.86°N, 25.64°E
打ち上げ日 Dec 10, 2025
運用期間 4 days
タイプ other

技術仕様

分類 Payload
質量 260.00 kg
乾燥質量 260.00 kg
総質量 260.00 kg
長さ 1.00 m
直径 1.00 m
スパン 6.00 m
形状 Box+ pan
製造者 IMICAS/UAEU
フェーズステータス In Orbit
所有者/国 UAESA/UAEU/UAE

大規模コンステレーション

Loading constellations...